Simultaneous Nadir Overpasses (SNOs) Predictions

Prediction of SNOs between GOES-15 and NOAA-19 Satellite Orbit:

Table of predicted SNOs for the next 14.0 days since TLE Epoch: 3/21/2025
Index Date Time (GOES-15) GOES-15 Lat,Lon NOAA-19 Lat,Lon Distance(km) Time Diff (sec)
1 03/22/2025 05:35:38 -0.08, 61.30 -0.07, 61.23 7.27 80
2 03/23/2025 05:25:43 -0.08, 61.30 -0.78, 64.28 341.04 80
3 03/25/2025 17:44:28 0.09, 61.27 -0.24, 59.81 166.16 80
4 03/26/2025 17:29:14 0.09, 61.27 0.48, 62.86 181.79 80
5 03/29/2025 05:47:56 -0.09, 61.34 0.55, 58.40 334.73 80
6 03/30/2025 05:38:00 -0.09, 61.35 -0.13, 61.46 13.33 80
7 03/31/2025 05:25:25 -0.09, 61.36 -0.82, 64.52 361.03 80
8 04/01/2025 17:56:45 0.11, 61.32 -0.91, 56.99 495.25 80
9 04/02/2025 17:44:11 0.11, 61.34 -0.17, 60.04 148.24 80
10 04/03/2025 17:28:55 0.11, 61.36 0.52, 63.10 198.70 80
